This is the latest recevied weather packets stored in our database for station/object N4NVD-13. If no packets are shown the sender has not sent any weather packets the latest 10 day(s).
| Time | Temp. | Humidity | Pressure | Rain* | Wind** | Luminosity | Snow |
|---|---|---|---|---|---|---|---|
| 1777761221 | 23.89° C | 47% | 1018.5 hPa | 0 mm | - | 313 W/m² | - |
| 1777760919 | 23.33° C | 53% | 1018.3 hPa | 0 mm | - | 300 W/m² | - |
| 1777760616 | 23.33° C | 50% | 1018.4 hPa | 0 mm | - | 78 W/m² | - |
| 1777760312 | 24.44° C | 49% | 1018.5 hPa | 0 mm | - | 106 W/m² | - |
| 1777760008 | 25.56° C | 47% | 1018.1 hPa | 0 mm | - | 455 W/m² | - |
| 1777759706 | 25.56° C | 46% | 1018.4 hPa | 0 mm | - | 481 W/m² | - |
| 1777759401 | 25° C | 49% | 1018.3 hPa | 0 mm | - | 421 W/m² | - |
| 1777759098 | 23.89° C | 51% | 1018.4 hPa | 0 mm | - | 431 W/m² | - |
| 1777758796 | 23.89° C | 51% | 1018.5 hPa | 0 mm | - | 528 W/m² | - |
| 1777758492 | 24.44° C | 49% | 1018.5 hPa | 0 mm | - | 515 W/m² | - |
| 1777758189 | 23.89° C | 53% | 1018.6 hPa | 0 mm | - | 504 W/m² | - |
| 1777757886 | 24.44° C | 50% | 1018.5 hPa | 0 mm | - | 601 W/m² | - |
| 1777757583 | 23.89° C | 51% | 1018.9 hPa | 0 mm | - | 576 W/m² | - |
| 1777757282 | 23.89° C | 52% | 1018.8 hPa | 0 mm | - | 552 W/m² | - |
| 1777756980 | 24.44° C | 50% | 1018.7 hPa | 0 mm | - | 551 W/m² | - |
| 1777756676 | 25° C | 53% | 1019 hPa | 0 mm | - | 336 W/m² | - |
| 1777756372 | 23.89° C | 51% | 1019.1 hPa | 0 mm | - | 410 W/m² | - |
| 1777756070 | 24.44° C | 56% | 1019.2 hPa | 0 mm | - | 584 W/m² | - |
| 1777755767 | 23.33° C | 53% | 1019 hPa | 0 mm | - | 542 W/m² | - |
| 1777755464 | 25° C | 55% | 1019.2 hPa | 0 mm | - | 684 W/m² | - |
| 1777755160 | 23.89° C | 52% | 1019.4 hPa | 0 mm | - | 640 W/m² | - |
| 1777754858 | 23.33° C | 54% | 1019.4 hPa | 0 mm | - | 478 W/m² | - |
| 1777754555 | 23.89° C | 52% | 1019.2 hPa | 0 mm | - | 635 W/m² | - |
| 1777754252 | 23.89° C | 53% | 1019.2 hPa | 0 mm | - | 690 W/m² | - |
| 1777753950 | 23.33° C | 53% | 1019.4 hPa | 0 mm | - | 736 W/m² | - |
* Rain latest hour (hover to see other rain measurements)
** Current wind speed in m/s (hover to see current wind gust speed)